Terminal Aerodrome Forecast
Issued by NWS Raleigh/Durham, NC

Home | Current Version | Previous Version | Text Only | Print | Product List | Glossary On
Versions: 1 2 3 4 5 6 7 8 9 10 11 12 13 14 15 16 17 18 19 20 21 22 23 24 25 26 27 28 29 30 31 32 33 34 35 36 37 38 39 40 41 42 43 44 45 46 47 48 49 50
000
FTUS42 KRAH 051503 AAA
TAFGSO
TAF AMD
KGSO 051503Z 0515/0612 19007KT P6SM SCT018 BKN120
      TEMPO 0515/0517 BKN018
     FM051800 20007KT P6SM VCTS SCT045CB BKN120
      TEMPO 0519/0521 VRB15G30KT 3SM -TSRA SCT030 BKN045CB BKN120
     FM052200 18006KT P6SM VCSH BKN045 BKN120=

USA.gov is the U.S. government's official web portal to all federal, state and local government web resources and services.